owner,sensor,date,latitude,longitude,vertical_datum,mass_concentration_of_oxygen_in_sea_water,qcFlag 
SCCF RECON,ioos:station:SCCF:13:1,2017-01-01T00:00:00Z,26.5255,-82.0032,2.49,-9999.0,1111122 
SCCF RECON,ioos:station:SCCF:13:1,2017-01-01T01:00:00Z,26.5255,-82.0032,2.441,-9999.0,1111122 
SCCF RECON,ioos:station:SCCF:13:1,2017-01-01T02:00:00Z,26.5255,-82.0032,2.43,-9999.0,1111122 
SCCF RECON,ioos:station:SCCF:13:1,2017-01-01T03:00:00Z,26.5255,-82.0032,2.474,-9999.0,1111122 
SCCF RECON,ioos:station:SCCF:13:1,2017-01-01T04:00:00Z,26.5255,-82.0032,2.597,-9999.0,1111122 
SCCF RECON,ioos:station:SCCF:13:1,2017-01-01T05:00:00Z,26.5255,-82.0032,2.68,-9999.0,1111122 
SCCF RECON,ioos:station:SCCF:13:1,2017-01-01T06:00:00Z,26.5255,-82.0032,2.73,-9999.0,1111122 
SCCF RECON,ioos:station:SCCF:13:1,2017-01-01T07:00:00Z,26.5255,-82.0032,2.749,-9999.0,1111122 
SCCF RECON,ioos:station:SCCF:13:1,2017-01-01T08:00:00Z,26.5255,-82.0032,2.76,-9999.0,1111122 
SCCF RECON,ioos:station:SCCF:13:1,2017-01-01T09:00:00Z,26.5255,-82.0032,2.708,-9999.0,1111122 
SCCF RECON,ioos:station:SCCF:13:1,2017-01-01T10:00:00Z,26.5255,-82.0032,2.61,-9999.0,1111122 
SCCF RECON,ioos:station:SCCF:13:1,2017-01-01T11:00:00Z,26.5255,-82.0032,2.513,-9999.0,1111122 
SCCF RECON,ioos:station:SCCF:13:1,2017-01-01T12:00:00Z,26.5255,-82.0032,2.43,-9999.0,1111122 
SCCF RECON,ioos:station:SCCF:13:1,2017-01-01T13:00:00Z,26.5255,-82.0032,2.35,-9999.0,1111122 
SCCF RECON,ioos:station:SCCF:13:1,2017-01-01T14:00:00Z,26.5255,-82.0032,2.271,-9999.0,1111122 
SCCF RECON,ioos:station:SCCF:13:1,2017-01-01T15:00:00Z,26.5255,-82.0032,2.25,-9999.0,1111122 
SCCF RECON,ioos:station:SCCF:13:1,2017-01-01T16:00:00Z,26.5255,-82.0032,2.343,-9999.0,1111122 
SCCF RECON,ioos:station:SCCF:13:1,2017-01-01T17:00:00Z,26.5255,-82.0032,2.488,-9999.0,1111122 
SCCF RECON,ioos:station:SCCF:13:1,2017-01-01T18:00:00Z,26.5255,-82.0032,2.551,-9999.0,1111122 
SCCF RECON,ioos:station:SCCF:13:1,2017-01-01T19:00:00Z,26.5255,-82.0032,2.596,-9999.0,1111122 
SCCF RECON,ioos:station:SCCF:13:1,2017-01-01T20:00:00Z,26.5255,-82.0032,2.65,-9999.0,1111122 
SCCF RECON,ioos:station:SCCF:13:1,2017-01-01T21:00:00Z,26.5255,-82.0032,2.69,-9999.0,1111122 
SCCF RECON,ioos:station:SCCF:13:1,2017-01-01T22:00:00Z,26.5255,-82.0032,2.698,-9999.0,1111122 
SCCF RECON,ioos:station:SCCF:13:1,2017-01-01T23:00:00Z,26.5255,-82.0032,2.677,-9999.0,1111122 
SCCF RECON,ioos:station:SCCF:13:1,2017-01-02T00:00:00Z,26.5255,-82.0032,2.626,-9999.0,1111122 
SCCF RECON,ioos:station:SCCF:13:1,2017-01-02T01:00:00Z,26.5255,-82.0032,2.581,-9999.0,1111122 
SCCF RECON,ioos:station:SCCF:13:1,2017-01-02T02:00:00Z,26.5255,-82.0032,2.55,-9999.0,1111122 
SCCF RECON,ioos:station:SCCF:13:1,2017-01-02T03:00:00Z,26.5255,-82.0032,2.55,-9999.0,1111122 
SCCF RECON,ioos:station:SCCF:13:1,2017-01-02T04:00:00Z,26.5255,-82.0032,2.61,-9999.0,1111122 
SCCF RECON,ioos:station:SCCF:13:1,2017-01-02T05:00:00Z,26.5255,-82.0032,2.71,-9999.0,1111122 
SCCF RECON,ioos:station:SCCF:13:1,2017-01-02T06:00:00Z,26.5255,-82.0032,2.78,-9999.0,1111122 
SCCF RECON,ioos:station:SCCF:13:1,2017-01-02T07:00:00Z,26.5255,-82.0032,2.8,-9999.0,1111122 
SCCF RECON,ioos:station:SCCF:13:1,2017-01-02T08:00:00Z,26.5255,-82.0032,2.81,-9999.0,1111122 
SCCF RECON,ioos:station:SCCF:13:1,2017-01-02T09:00:00Z,26.5255,-82.0032,2.77,-9999.0,1111122 
SCCF RECON,ioos:station:SCCF:13:1,2017-01-02T10:00:00Z,26.5255,-82.0032,2.68,-9999.0,1111122 
SCCF RECON,ioos:station:SCCF:13:1,2017-01-02T11:00:00Z,26.5255,-82.0032,2.58,-9999.0,1111122 
SCCF RECON,ioos:station:SCCF:13:1,2017-01-02T12:00:00Z,26.5255,-82.0032,2.49,-9999.0,1111122 
SCCF RECON,ioos:station:SCCF:13:1,2017-01-02T13:00:00Z,26.5255,-82.0032,2.41,-9999.0,1111122 
SCCF RECON,ioos:station:SCCF:13:1,2017-01-02T14:00:00Z,26.5255,-82.0032,2.32,-9999.0,1111122 
SCCF RECON,ioos:station:SCCF:13:1,2017-01-02T15:00:00Z,26.5255,-82.0032,2.25,-9999.0,1111122 
SCCF RECON,ioos:station:SCCF:13:1,2017-01-02T16:00:00Z,26.5255,-82.0032,2.23,-9999.0,1111122 
SCCF RECON,ioos:station:SCCF:13:1,2017-01-02T17:00:00Z,26.5255,-82.0032,2.325,-9999.0,1111122 
SCCF RECON,ioos:station:SCCF:13:1,2017-01-02T18:00:00Z,26.5255,-82.0032,2.425,-9999.0,1111122 
SCCF RECON,ioos:station:SCCF:13:1,2017-01-02T19:00:00Z,26.5255,-82.0032,2.477,-9999.0,1111122 
SCCF RECON,ioos:station:SCCF:13:1,2017-01-02T20:00:00Z,26.5255,-82.0032,2.51,-9999.0,1111122 
SCCF RECON,ioos:station:SCCF:13:1,2017-01-02T21:00:00Z,26.5255,-82.0032,2.56,-9999.0,1111122 
SCCF RECON,ioos:station:SCCF:13:1,2017-01-02T22:00:00Z,26.5255,-82.0032,2.592,-9999.0,1111122 
SCCF RECON,ioos:station:SCCF:13:1,2017-01-02T23:00:00Z,26.5255,-82.0032,2.589,-9999.0,1111122 
SCCF RECON,ioos:station:SCCF:13:1,2017-01-03T00:00:00Z,26.5255,-82.0032,2.53,-9999.0,1111122 
SCCF RECON,ioos:station:SCCF:13:1,2017-01-03T01:00:00Z,26.5255,-82.0032,2.46,-9999.0,1111122 
SCCF RECON,ioos:station:SCCF:13:1,2017-01-03T02:00:00Z,26.5255,-82.0032,2.392,-9999.0,1111122 
SCCF RECON,ioos:station:SCCF:13:1,2017-01-03T03:00:00Z,26.5255,-82.0032,2.38,-9999.0,1111122 
SCCF RECON,ioos:station:SCCF:13:1,2017-01-03T04:00:00Z,26.5255,-82.0032,2.41,-9999.0,1111122 
SCCF RECON,ioos:station:SCCF:13:1,2017-01-03T05:00:00Z,26.5255,-82.0032,2.5,-9999.0,1111122 
SCCF RECON,ioos:station:SCCF:13:1,2017-01-03T06:00:00Z,26.5255,-82.0032,2.55,-9999.0,1111122 
SCCF RECON,ioos:station:SCCF:13:1,2017-01-03T07:00:00Z,26.5255,-82.0032,2.6,-9999.0,1111122 
SCCF RECON,ioos:station:SCCF:13:1,2017-01-03T08:00:00Z,26.5255,-82.0032,2.62,-9999.0,1111122 
SCCF RECON,ioos:station:SCCF:13:1,2017-01-03T09:00:00Z,26.5255,-82.0032,2.63,-9999.0,1111122 
SCCF RECON,ioos:station:SCCF:13:1,2017-01-03T10:00:00Z,26.5255,-82.0032,2.63,-9999.0,1111122 
SCCF RECON,ioos:station:SCCF:13:1,2017-01-03T11:00:00Z,26.5255,-82.0032,2.615,-9999.0,1111122 
SCCF RECON,ioos:station:SCCF:13:1,2017-01-03T12:00:00Z,26.5255,-82.0032,2.52,-9999.0,1111122 
SCCF RECON,ioos:station:SCCF:13:1,2017-01-03T13:00:00Z,26.5255,-82.0032,2.41,-9999.0,1111122 
SCCF RECON,ioos:station:SCCF:13:1,2017-01-03T14:00:00Z,26.5255,-82.0032,2.34,-9999.0,1111122 
SCCF RECON,ioos:station:SCCF:13:1,2017-01-03T15:00:00Z,26.5255,-82.0032,2.26,-9999.0,1111122 
SCCF RECON,ioos:station:SCCF:13:1,2017-01-03T16:00:00Z,26.5255,-82.0032,2.2,-9999.0,1111122 
SCCF RECON,ioos:station:SCCF:13:1,2017-01-03T17:00:00Z,26.5255,-82.0032,2.211,-9999.0,1111122 
SCCF RECON,ioos:station:SCCF:13:1,2017-01-03T18:00:00Z,26.5255,-82.0032,2.3,-9999.0,1111122 
SCCF RECON,ioos:station:SCCF:13:1,2017-01-03T19:00:00Z,26.5255,-82.0032,2.399,-9999.0,1111122 
SCCF RECON,ioos:station:SCCF:13:1,2017-01-03T20:00:00Z,26.5255,-82.0032,2.459,-9999.0,1111122 
SCCF RECON,ioos:station:SCCF:13:1,2017-01-03T21:00:00Z,26.5255,-82.0032,2.52,-9999.0,1111122 
SCCF RECON,ioos:station:SCCF:13:1,2017-01-03T22:00:00Z,26.5255,-82.0032,2.57,-9999.0,1111122 
SCCF RECON,ioos:station:SCCF:13:1,2017-01-03T23:00:00Z,26.5255,-82.0032,2.59,-9999.0,1111122 
SCCF RECON,ioos:station:SCCF:13:1,2017-01-04T00:00:00Z,26.5255,-82.0032,2.56,-9999.0,1111122 
SCCF RECON,ioos:station:SCCF:13:1,2017-01-04T01:00:00Z,26.5255,-82.0032,2.49,-9999.0,1111122 
SCCF RECON,ioos:station:SCCF:13:1,2017-01-04T02:00:00Z,26.5255,-82.0032,2.43,-9999.0,1111122 
SCCF RECON,ioos:station:SCCF:13:1,2017-01-04T03:00:00Z,26.5255,-82.0032,2.4,-9999.0,1111122 
SCCF RECON,ioos:station:SCCF:13:1,2017-01-04T04:00:00Z,26.5255,-82.0032,2.37,-9999.0,1111122 
SCCF RECON,ioos:station:SCCF:13:1,2017-01-04T05:00:00Z,26.5255,-82.0032,2.389,-9999.0,1111122 
SCCF RECON,ioos:station:SCCF:13:1,2017-01-04T06:00:00Z,26.5255,-82.0032,2.46,-9999.0,1111122 
SCCF RECON,ioos:station:SCCF:13:1,2017-01-04T07:00:00Z,26.5255,-82.0032,2.522,-9999.0,1111122 
SCCF RECON,ioos:station:SCCF:13:1,2017-01-04T08:00:00Z,26.5255,-82.0032,2.57,-9999.0,1111122 
SCCF RECON,ioos:station:SCCF:13:1,2017-01-04T09:00:00Z,26.5255,-82.0032,2.61,-9999.0,1111122 
SCCF RECON,ioos:station:SCCF:13:1,2017-01-04T10:00:00Z,26.5255,-82.0032,2.65,-9999.0,1111122 
SCCF RECON,ioos:station:SCCF:13:1,2017-01-04T11:00:00Z,26.5255,-82.0032,2.658,-9999.0,1111122 
SCCF RECON,ioos:station:SCCF:13:1,2017-01-04T12:00:00Z,26.5255,-82.0032,2.6,-9999.0,1111122 
SCCF RECON,ioos:station:SCCF:13:1,2017-01-04T13:00:00Z,26.5255,-82.0032,2.508,-9999.0,1111122 
SCCF RECON,ioos:station:SCCF:13:1,2017-01-04T14:00:00Z,26.5255,-82.0032,2.41,-9999.0,1111122 
SCCF RECON,ioos:station:SCCF:13:1,2017-01-04T15:00:00Z,26.5255,-82.0032,2.35,-9999.0,1111122 
SCCF RECON,ioos:station:SCCF:13:1,2017-01-04T16:00:00Z,26.5255,-82.0032,2.294,-9999.0,1111122 
SCCF RECON,ioos:station:SCCF:13:1,2017-01-04T17:00:00Z,26.5255,-82.0032,2.26,-9999.0,1111122 
SCCF RECON,ioos:station:SCCF:13:1,2017-01-04T18:00:00Z,26.5255,-82.0032,2.287,-9999.0,1111122 
SCCF RECON,ioos:station:SCCF:13:1,2017-01-04T19:00:00Z,26.5255,-82.0032,2.377,-9999.0,1111122 
SCCF RECON,ioos:station:SCCF:13:1,2017-01-04T20:00:00Z,26.5255,-82.0032,2.46,-9999.0,1111122 
SCCF RECON,ioos:station:SCCF:13:1,2017-01-04T21:00:00Z,26.5255,-82.0032,2.52,-9999.0,1111122 
SCCF RECON,ioos:station:SCCF:13:1,2017-01-04T22:00:00Z,26.5255,-82.0032,2.579,-9999.0,1111122 
SCCF RECON,ioos:station:SCCF:13:1,2017-01-04T23:00:00Z,26.5255,-82.0032,2.609,-9999.0,1111122 
SCCF RECON,ioos:station:SCCF:13:1,2017-01-05T00:00:00Z,26.5255,-82.0032,2.59,-9999.0,1111122 
SCCF RECON,ioos:station:SCCF:13:1,2017-01-05T01:00:00Z,26.5255,-82.0032,2.53,-9999.0,1111122 
SCCF RECON,ioos:station:SCCF:13:1,2017-01-05T02:00:00Z,26.5255,-82.0032,2.46,-9999.0,1111122 
SCCF RECON,ioos:station:SCCF:13:1,2017-01-05T03:00:00Z,26.5255,-82.0032,2.39,-9999.0,1111122 
SCCF RECON,ioos:station:SCCF:13:1,2017-01-05T04:00:00Z,26.5255,-82.0032,2.34,-9999.0,1111122 
SCCF RECON,ioos:station:SCCF:13:1,2017-01-05T05:00:00Z,26.5255,-82.0032,2.28,-9999.0,1111122 
SCCF RECON,ioos:station:SCCF:13:1,2017-01-05T06:00:00Z,26.5255,-82.0032,2.26,-9999.0,1111122 
SCCF RECON,ioos:station:SCCF:13:1,2017-01-05T07:00:00Z,26.5255,-82.0032,2.28,-9999.0,1111122 
SCCF RECON,ioos:station:SCCF:13:1,2017-01-05T08:00:00Z,26.5255,-82.0032,2.37,-9999.0,1111122 
SCCF RECON,ioos:station:SCCF:13:1,2017-01-05T09:00:00Z,26.5255,-82.0032,2.44,-9999.0,1111122 
SCCF RECON,ioos:station:SCCF:13:1,2017-01-05T10:00:00Z,26.5255,-82.0032,2.48,-9999.0,1111122 
SCCF RECON,ioos:station:SCCF:13:1,2017-01-05T11:00:00Z,26.5255,-82.0032,2.49,-9999.0,1111122 
SCCF RECON,ioos:station:SCCF:13:1,2017-01-05T12:00:00Z,26.5255,-82.0032,2.489,-9999.0,1111122 
SCCF RECON,ioos:station:SCCF:13:1,2017-01-05T13:00:00Z,26.5255,-82.0032,2.439,-9999.0,1111122 
SCCF RECON,ioos:station:SCCF:13:1,2017-01-05T14:00:00Z,26.5255,-82.0032,2.37,-9999.0,1111122 
SCCF RECON,ioos:station:SCCF:13:1,2017-01-05T15:00:00Z,26.5255,-82.0032,2.31,-9999.0,1111122 
SCCF RECON,ioos:station:SCCF:13:1,2017-01-05T16:00:00Z,26.5255,-82.0032,2.27,-9999.0,1111122 
SCCF RECON,ioos:station:SCCF:13:1,2017-01-05T17:00:00Z,26.5255,-82.0032,2.232,-9999.0,1111122 
SCCF RECON,ioos:station:SCCF:13:1,2017-01-05T18:00:00Z,26.5255,-82.0032,2.21,-9999.0,1111122 
SCCF RECON,ioos:station:SCCF:13:1,2017-01-05T19:00:00Z,26.5255,-82.0032,2.241,-9999.0,1111122 
SCCF RECON,ioos:station:SCCF:13:1,2017-01-05T20:00:00Z,26.5255,-82.0032,2.33,-9999.0,1111122 
SCCF RECON,ioos:station:SCCF:13:1,2017-01-05T21:00:00Z,26.5255,-82.0032,2.429,-9999.0,1111122 
SCCF RECON,ioos:station:SCCF:13:1,2017-01-05T22:00:00Z,26.5255,-82.0032,2.49,-9999.0,1111122 
SCCF RECON,ioos:station:SCCF:13:1,2017-01-05T23:00:00Z,26.5255,-82.0032,2.55,-9999.0,1111122 
SCCF RECON,ioos:station:SCCF:13:1,2017-01-06T00:00:00Z,26.5255,-82.0032,2.6,-9999.0,1111122 
SCCF RECON,ioos:station:SCCF:13:1,2017-01-06T01:00:00Z,26.5255,-82.0032,2.6,-9999.0,1111122 
SCCF RECON,ioos:station:SCCF:13:1,2017-01-06T02:00:00Z,26.5255,-82.0032,2.54,-9999.0,1111122 
SCCF RECON,ioos:station:SCCF:13:1,2017-01-06T03:00:00Z,26.5255,-82.0032,2.467,-9999.0,1111122 
SCCF RECON,ioos:station:SCCF:13:1,2017-01-06T04:00:00Z,26.5255,-82.0032,2.39,-9999.0,1111122 
SCCF RECON,ioos:station:SCCF:13:1,2017-01-06T05:00:00Z,26.5255,-82.0032,2.34,-9999.0,1111122 
SCCF RECON,ioos:station:SCCF:13:1,2017-01-06T06:00:00Z,26.5255,-82.0032,2.28,-9999.0,1111122 
SCCF RECON,ioos:station:SCCF:13:1,2017-01-06T07:00:00Z,26.5255,-82.0032,2.24,-9999.0,1111122 
SCCF RECON,ioos:station:SCCF:13:1,2017-01-06T08:00:00Z,26.5255,-82.0032,2.26,-9999.0,1111122 
SCCF RECON,ioos:station:SCCF:13:1,2017-01-06T09:00:00Z,26.5255,-82.0032,2.35,-9999.0,1111122 
SCCF RECON,ioos:station:SCCF:13:1,2017-01-06T10:00:00Z,26.5255,-82.0032,2.424,-9999.0,1111122 
SCCF RECON,ioos:station:SCCF:13:1,2017-01-06T11:00:00Z,26.5255,-82.0032,2.464,-9999.0,1111122 
SCCF RECON,ioos:station:SCCF:13:1,2017-01-06T12:00:00Z,26.5255,-82.0032,2.5,-9999.0,1111122 
SCCF RECON,ioos:station:SCCF:13:1,2017-01-06T13:00:00Z,26.5255,-82.0032,2.52,-9999.0,1111122 
SCCF RECON,ioos:station:SCCF:13:1,2017-01-06T14:00:00Z,26.5255,-82.0032,2.51,-9999.0,1111122 
SCCF RECON,ioos:station:SCCF:13:1,2017-01-06T15:00:00Z,26.5255,-82.0032,2.48,-9999.0,1111122 
SCCF RECON,ioos:station:SCCF:13:1,2017-01-06T16:00:00Z,26.5255,-82.0032,2.42,-9999.0,1111122 
SCCF RECON,ioos:station:SCCF:13:1,2017-01-06T17:00:00Z,26.5255,-82.0032,2.367,-9999.0,1111122 
SCCF RECON,ioos:station:SCCF:13:1,2017-01-06T18:00:00Z,26.5255,-82.0032,2.305,-9999.0,1111122 
SCCF RECON,ioos:station:SCCF:13:1,2017-01-06T19:00:00Z,26.5255,-82.0032,2.299,-9999.0,1111122 
SCCF RECON,ioos:station:SCCF:13:1,2017-01-06T20:00:00Z,26.5255,-82.0032,2.368,-9999.0,1111122 
SCCF RECON,ioos:station:SCCF:13:1,2017-01-06T21:00:00Z,26.5255,-82.0032,2.46,-9999.0,1111122 
SCCF RECON,ioos:station:SCCF:13:1,2017-01-06T22:00:00Z,26.5255,-82.0032,2.526,-9999.0,1111122 
SCCF RECON,ioos:station:SCCF:13:1,2017-01-06T23:00:00Z,26.5255,-82.0032,2.603,-9999.0,1111122 
SCCF RECON,ioos:station:SCCF:13:1,2017-01-07T00:00:00Z,26.5255,-82.0032,2.681,-9999.0,1111122 
SCCF RECON,ioos:station:SCCF:13:1,2017-01-07T01:00:00Z,26.5255,-82.0032,2.74,-9999.0,1111122 
SCCF RECON,ioos:station:SCCF:13:1,2017-01-07T02:00:00Z,26.5255,-82.0032,2.75,-9999.0,1111122 
SCCF RECON,ioos:station:SCCF:13:1,2017-01-07T03:00:00Z,26.5255,-82.0032,2.71,-9999.0,1111122 
SCCF RECON,ioos:station:SCCF:13:1,2017-01-07T04:00:00Z,26.5255,-82.0032,2.629,-9999.0,1111122 
SCCF RECON,ioos:station:SCCF:13:1,2017-01-07T05:00:00Z,26.5255,-82.0032,2.56,-9999.0,1111122 
SCCF RECON,ioos:station:SCCF:13:1,2017-01-07T06:00:00Z,26.5255,-82.0032,2.479,-9999.0,1111122 
SCCF RECON,ioos:station:SCCF:13:1,2017-01-07T07:00:00Z,26.5255,-82.0032,2.41,-9999.0,1111122 
SCCF RECON,ioos:station:SCCF:13:1,2017-01-07T08:00:00Z,26.5255,-82.0032,2.357,-9999.0,1111122 
SCCF RECON,ioos:station:SCCF:13:1,2017-01-07T09:00:00Z,26.5255,-82.0032,2.389,-9999.0,1111122 
SCCF RECON,ioos:station:SCCF:13:1,2017-01-07T10:00:00Z,26.5255,-82.0032,2.488,-9999.0,1111122 
SCCF RECON,ioos:station:SCCF:13:1,2017-01-07T11:00:00Z,26.5255,-82.0032,2.56,-9999.0,1111122 
SCCF RECON,ioos:station:SCCF:13:1,2017-01-07T12:00:00Z,26.5255,-82.0032,2.61,-9999.0,1111122 
SCCF RECON,ioos:station:SCCF:13:1,2017-01-07T13:00:00Z,26.5255,-82.0032,2.68,-9999.0,1111122 
SCCF RECON,ioos:station:SCCF:13:1,2017-01-07T14:00:00Z,26.5255,-82.0032,2.69,-9999.0,1111122 
SCCF RECON,ioos:station:SCCF:13:1,2017-01-07T15:00:00Z,26.5255,-82.0032,2.67,-9999.0,1111122 
SCCF RECON,ioos:station:SCCF:13:1,2017-01-07T16:00:00Z,26.5255,-82.0032,2.7,-9999.0,1111122 
SCCF RECON,ioos:station:SCCF:13:1,2017-01-07T17:00:00Z,26.5255,-82.0032,2.67,-9999.0,1111122 
SCCF RECON,ioos:station:SCCF:13:1,2017-01-07T18:00:00Z,26.5255,-82.0032,2.549,-9999.0,1111122 
SCCF RECON,ioos:station:SCCF:13:1,2017-01-07T19:00:00Z,26.5255,-82.0032,2.45,-9999.0,1111122 
SCCF RECON,ioos:station:SCCF:13:1,2017-01-07T20:00:00Z,26.5255,-82.0032,2.4,-9999.0,1111122 
SCCF RECON,ioos:station:SCCF:13:1,2017-01-07T21:00:00Z,26.5255,-82.0032,2.37,-9999.0,1111122 
SCCF RECON,ioos:station:SCCF:13:1,2017-01-07T22:00:00Z,26.5255,-82.0032,2.355,-9999.0,1111122 
SCCF RECON,ioos:station:SCCF:13:1,2017-01-07T23:00:00Z,26.5255,-82.0032,2.36,-9999.0,1111122 
SCCF RECON,ioos:station:SCCF:13:1,2017-01-08T00:00:00Z,26.5255,-82.0032,2.39,-9999.0,1111122 
SCCF RECON,ioos:station:SCCF:13:1,2017-01-08T01:00:00Z,26.5255,-82.0032,2.407,-9999.0,1111122 
SCCF RECON,ioos:station:SCCF:13:1,2017-01-08T02:00:00Z,26.5255,-82.0032,2.409,-9999.0,1111122 
SCCF RECON,ioos:station:SCCF:13:1,2017-01-08T03:00:00Z,26.5255,-82.0032,2.39,-9999.0,1111122 
SCCF RECON,ioos:station:SCCF:13:1,2017-01-08T04:00:00Z,26.5255,-82.0032,2.33,-9999.0,1111122 
SCCF RECON,ioos:station:SCCF:13:1,2017-01-08T05:00:00Z,26.5255,-82.0032,2.24,-9999.0,1111122 
SCCF RECON,ioos:station:SCCF:13:1,2017-01-08T06:00:00Z,26.5255,-82.0032,2.15,-9999.0,1111122 
SCCF RECON,ioos:station:SCCF:13:1,2017-01-08T07:00:00Z,26.5255,-82.0032,2.05,-9999.0,1111122 
SCCF RECON,ioos:station:SCCF:13:1,2017-01-08T08:00:00Z,26.5255,-82.0032,1.95,-9999.0,1111122 
SCCF RECON,ioos:station:SCCF:13:1,2017-01-08T09:00:00Z,26.5255,-82.0032,1.87,-9999.0,1111122 
SCCF RECON,ioos:station:SCCF:13:1,2017-01-08T10:00:00Z,26.5255,-82.0032,1.839,-9999.0,1111122 
SCCF RECON,ioos:station:SCCF:13:1,2017-01-08T11:00:00Z,26.5255,-82.0032,1.86,-9999.0,1111122 
SCCF RECON,ioos:station:SCCF:13:1,2017-01-08T12:00:00Z,26.5255,-82.0032,1.911,-9999.0,1111122 
SCCF RECON,ioos:station:SCCF:13:1,2017-01-08T13:00:00Z,26.5255,-82.0032,1.993,-9999.0,1111122 
SCCF RECON,ioos:station:SCCF:13:1,2017-01-08T14:00:00Z,26.5255,-82.0032,2.052,-9999.0,1111122 
SCCF RECON,ioos:station:SCCF:13:1,2017-01-08T15:00:00Z,26.5255,-82.0032,2.1,-9999.0,1111122 
SCCF RECON,ioos:station:SCCF:13:1,2017-01-08T16:00:00Z,26.5255,-82.0032,2.102,-9999.0,1111122 
SCCF RECON,ioos:station:SCCF:13:1,2017-01-08T17:00:00Z,26.5255,-82.0032,2.1,-9999.0,1111122 
SCCF RECON,ioos:station:SCCF:13:1,2017-01-08T18:00:00Z,26.5255,-82.0032,2.107,-9999.0,1111122 
SCCF RECON,ioos:station:SCCF:13:1,2017-01-08T19:00:00Z,26.5255,-82.0032,2.108,-9999.0,1111122 
SCCF RECON,ioos:station:SCCF:13:1,2017-01-08T20:00:00Z,26.5255,-82.0032,2.132,-9999.0,1111122 
SCCF RECON,ioos:station:SCCF:13:1,2017-01-08T21:00:00Z,26.5255,-82.0032,2.13,-9999.0,1111122 
SCCF RECON,ioos:station:SCCF:13:1,2017-01-08T22:00:00Z,26.5255,-82.0032,2.185,-9999.0,1111122 
SCCF RECON,ioos:station:SCCF:13:1,2017-01-08T23:00:00Z,26.5255,-82.0032,2.31,-9999.0,1111122 
SCCF RECON,ioos:station:SCCF:13:1,2017-01-09T00:00:00Z,26.5255,-82.0032,2.422,-9999.0,1111122 
SCCF RECON,ioos:station:SCCF:13:1,2017-01-09T01:00:00Z,26.5255,-82.0032,2.52,-9999.0,1111122 
SCCF RECON,ioos:station:SCCF:13:1,2017-01-09T02:00:00Z,26.5255,-82.0032,2.57,-9999.0,1111122 
SCCF RECON,ioos:station:SCCF:13:1,2017-01-09T03:00:00Z,26.5255,-82.0032,2.54,-9999.0,1111122 
SCCF RECON,ioos:station:SCCF:13:1,2017-01-09T04:00:00Z,26.5255,-82.0032,2.468,-9999.0,1111122 
SCCF RECON,ioos:station:SCCF:13:1,2017-01-09T05:00:00Z,26.5255,-82.0032,2.359,-9999.0,1111122 
SCCF RECON,ioos:station:SCCF:13:1,2017-01-09T06:00:00Z,26.5255,-82.0032,2.273,-9999.0,1111122 
SCCF RECON,ioos:station:SCCF:13:1,2017-01-09T07:00:00Z,26.5255,-82.0032,2.18,-9999.0,1111122 
SCCF RECON,ioos:station:SCCF:13:1,2017-01-09T08:00:00Z,26.5255,-82.0032,2.09,-9999.0,1111122 
SCCF RECON,ioos:station:SCCF:13:1,2017-01-09T09:00:00Z,26.5255,-82.0032,2.012,-9999.0,1111122 
SCCF RECON,ioos:station:SCCF:13:1,2017-01-09T10:00:00Z,26.5255,-82.0032,1.95,-9999.0,1111122 
SCCF RECON,ioos:station:SCCF:13:1,2017-01-09T11:00:00Z,26.5255,-82.0032,1.933,-9999.0,1111122 
SCCF RECON,ioos:station:SCCF:13:1,2017-01-09T12:00:00Z,26.5255,-82.0032,2.01,-9999.0,1111122 
SCCF RECON,ioos:station:SCCF:13:1,2017-01-09T13:00:00Z,26.5255,-82.0032,2.157,-9999.0,1111122 
SCCF RECON,ioos:station:SCCF:13:1,2017-01-09T14:00:00Z,26.5255,-82.0032,2.25,-9999.0,1111122 
SCCF RECON,ioos:station:SCCF:13:1,2017-01-09T15:00:00Z,26.5255,-82.0032,2.33,-9999.0,1111122 
SCCF RECON,ioos:station:SCCF:13:1,2017-01-09T16:00:00Z,26.5255,-82.0032,2.381,-9999.0,1111122 
SCCF RECON,ioos:station:SCCF:13:1,2017-01-09T17:00:00Z,26.5255,-82.0032,2.401,-9999.0,1111122 
SCCF RECON,ioos:station:SCCF:13:1,2017-01-09T18:00:00Z,26.5255,-82.0032,2.369,-9999.0,1111122 
SCCF RECON,ioos:station:SCCF:13:1,2017-01-09T19:00:00Z,26.5255,-82.0032,2.32,-9999.0,1111122 
SCCF RECON,ioos:station:SCCF:13:1,2017-01-09T20:00:00Z,26.5255,-82.0032,2.3,-9999.0,1111122 
SCCF RECON,ioos:station:SCCF:13:1,2017-01-09T21:00:00Z,26.5255,-82.0032,2.3,-9999.0,1111122 
SCCF RECON,ioos:station:SCCF:13:1,2017-01-09T22:00:00Z,26.5255,-82.0032,2.342,-9999.0,1111122 
SCCF RECON,ioos:station:SCCF:13:1,2017-01-09T23:00:00Z,26.5255,-82.0032,2.43,-9999.0,1111122 
SCCF RECON,ioos:station:SCCF:13:1,2017-01-10T00:00:00Z,26.5255,-82.0032,2.51,-9999.0,1111122 
SCCF RECON,ioos:station:SCCF:13:1,2017-01-10T01:00:00Z,26.5255,-82.0032,2.59,-9999.0,1111122 
SCCF RECON,ioos:station:SCCF:13:1,2017-01-10T02:00:00Z,26.5255,-82.0032,2.661,-9999.0,1111122 
SCCF RECON,ioos:station:SCCF:13:1,2017-01-10T03:00:00Z,26.5255,-82.0032,2.72,-9999.0,1111122 
SCCF RECON,ioos:station:SCCF:13:1,2017-01-10T04:00:00Z,26.5255,-82.0032,2.721,-9999.0,1111122 
SCCF RECON,ioos:station:SCCF:13:1,2017-01-10T05:00:00Z,26.5255,-82.0032,2.66,-9999.0,1111122 
SCCF RECON,ioos:station:SCCF:13:1,2017-01-10T06:00:00Z,26.5255,-82.0032,2.54,-9999.0,1111122 
SCCF RECON,ioos:station:SCCF:13:1,2017-01-10T07:00:00Z,26.5255,-82.0032,2.43,-9999.0,1111122 
SCCF RECON,ioos:station:SCCF:13:1,2017-01-10T08:00:00Z,26.5255,-82.0032,2.331,-9999.0,1111122 
SCCF RECON,ioos:station:SCCF:13:1,2017-01-10T09:00:00Z,26.5255,-82.0032,2.24,-9999.0,1111122 
SCCF RECON,ioos:station:SCCF:13:1,2017-01-10T10:00:00Z,26.5255,-82.0032,2.15,-9999.0,1111122 
SCCF RECON,ioos:station:SCCF:13:1,2017-01-10T11:00:00Z,26.5255,-82.0032,2.09,-9999.0,1111122 
SCCF RECON,ioos:station:SCCF:13:1,2017-01-10T12:00:00Z,26.5255,-82.0032,2.09,-9999.0,1111122 
SCCF RECON,ioos:station:SCCF:13:1,2017-01-10T13:00:00Z,26.5255,-82.0032,2.236,-9999.0,1111122 
SCCF RECON,ioos:station:SCCF:13:1,2017-01-10T14:00:00Z,26.5255,-82.0032,2.37,-9999.0,1111122 
SCCF RECON,ioos:station:SCCF:13:1,2017-01-10T15:00:00Z,26.5255,-82.0032,2.45,-9999.0,1111122 
SCCF RECON,ioos:station:SCCF:13:1,2017-01-10T16:00:00Z,26.5255,-82.0032,2.533,-9999.0,1111122 
SCCF RECON,ioos:station:SCCF:13:1,2017-01-10T17:00:00Z,26.5255,-82.0032,2.586,-9999.0,1111122 
SCCF RECON,ioos:station:SCCF:13:1,2017-01-10T18:00:00Z,26.5255,-82.0032,2.609,-9999.0,1111122 
SCCF RECON,ioos:station:SCCF:13:1,2017-01-10T19:00:00Z,26.5255,-82.0032,2.59,-9999.0,1111122 
SCCF RECON,ioos:station:SCCF:13:1,2017-01-10T20:00:00Z,26.5255,-82.0032,2.547,-9999.0,1111122 
SCCF RECON,ioos:station:SCCF:13:1,2017-01-10T21:00:00Z,26.5255,-82.0032,2.5,-9999.0,1111122 
SCCF RECON,ioos:station:SCCF:13:1,2017-01-10T22:00:00Z,26.5255,-82.0032,2.52,-9999.0,1111122 
SCCF RECON,ioos:station:SCCF:13:1,2017-01-10T23:00:00Z,26.5255,-82.0032,2.56,-9999.0,1111122 
SCCF RECON,ioos:station:SCCF:13:1,2017-01-11T00:00:00Z,26.5255,-82.0032,2.64,-9999.0,1111122 
SCCF RECON,ioos:station:SCCF:13:1,2017-01-11T01:00:00Z,26.5255,-82.0032,2.74,-9999.0,1111122 
SCCF RECON,ioos:station:SCCF:13:1,2017-01-11T02:00:00Z,26.5255,-82.0032,2.82,-9999.0,1111122 
SCCF RECON,ioos:station:SCCF:13:1,2017-01-11T03:00:00Z,26.5255,-82.0032,2.87,-9999.0,1111122 
SCCF RECON,ioos:station:SCCF:13:1,2017-01-11T04:00:00Z,26.5255,-82.0032,2.948,-9999.0,1111122 
SCCF RECON,ioos:station:SCCF:13:1,2017-01-11T05:00:00Z,26.5255,-82.0032,2.972,-9999.0,1111122 
SCCF RECON,ioos:station:SCCF:13:1,2017-01-11T06:00:00Z,26.5255,-82.0032,2.905,-9999.0,1111122 
SCCF RECON,ioos:station:SCCF:13:1,2017-01-11T07:00:00Z,26.5255,-82.0032,2.75,-9999.0,1111122 
SCCF RECON,ioos:station:SCCF:13:1,2017-01-11T08:00:00Z,26.5255,-82.0032,2.63,-9999.0,1111122 
SCCF RECON,ioos:station:SCCF:13:1,2017-01-11T09:00:00Z,26.5255,-82.0032,2.51,-9999.0,1111122 
SCCF RECON,ioos:station:SCCF:13:1,2017-01-11T10:00:00Z,26.5255,-82.0032,2.4,-9999.0,1111122 
SCCF RECON,ioos:station:SCCF:13:1,2017-01-11T11:00:00Z,26.5255,-82.0032,2.295,-9999.0,1111122 
SCCF RECON,ioos:station:SCCF:13:1,2017-01-11T12:00:00Z,26.5255,-82.0032,2.221,-9999.0,1111122 